Weather in Horst

Netherlands     51°27′17″N   6°03′23″E
temp.,
°C
wind,
m/s
gust,
m/s
humid.,
%
clouds,
%
prec.,
mm/h
press.,
hPa
HPBL,
m
26 june, sun
sun2623:00+16nnw2496100 1.1 1012107
02:00+16s2695100 1.6 1012214
05:00+15sw369781 0.0 1013192
08:00+16sw358669 0.0 1015355
11:00+20sw5662100 0.0 10161120
14:00+22sw3452100 0.0 10161463
17:00+19sse4470100 0.1 1016574
20:00+19sse336965 0.1 1016732
27 june, mon
mon2723:00+15ese2391100 0.0 101639
02:00+15se2393100 0.4 101699
05:00+14sw2295100 0.0 101554
08:00+16sw2487100 0.0 1015251
11:00+20wsw456299 0.0 1016782
14:00+21wsw7753100 0.1 10181513
17:00+19wnw5562100 0.0 1019967
20:00+19se1266100 0.4 1019228
28 june, tue
tue2823:00+14n11835 0.7 102011
02:00+13nne11855 1.0 102110
05:00+12w11855 0.0 102210
08:00+15wsw11752 0.0 1022167
11:00+20ssw12550 0.0 1022851
14:00+24ssw23420 0.0 10201946
17:00+25se233823 0.0 10182268
20:00+24ese345331 0.0 1017155
29 june, wed
wed2923:00+19ene335317 0.0 101725
02:00+17se33708 0.0 101727
05:00+15s22713 0.0 101616
08:00+19ssw34650 0.0 1016181
11:00+25sw344772 0.0 1016926
14:00+27sw333799 0.0 10151896
17:00+28sw033510 0.0 10142302
20:00+26ne23485 0.0 101364
30 june, thu
thu3023:00+20e22687 0.0 101317
02:00+19se33740 0.0 101335
05:00+17ese227817 0.0 101221
08:00+21s23626 0.0 1012174
11:00+27ese33544 0.0 1011827
14:00+30se564667 0.0 10102279
17:00+31ese66404 0.1 10081901
20:00+28ese484974 0.1 1006277